www.pogodaiklimat.ru

Погода и климат >> Архив погоды >> Корея >> Инчхон


ПОГОДА в Инчхоне

  • Прогноз погоды в Инчхоне
  • Монитор погоды в Инчхоне

АРХИВ ПОГОДЫ в Инчхоне

Время (UTC), дата Ветер
(напр.,м/с)
 
Видим.   Явления Облачность Т
(С)
Тd
(С)
f
(%)
Тe
(С)
Тes
(С)
Комфортность P
(гПа)
Po
(гПа)
Тmin
(С)
Tmax
(С)
R
(мм)
R24
(мм)
S
(см)
00 9.06 З 5 7000 м слаб. дождь 10/3 1000 м
[Sc As op]
+19.5 +17.2 87 +21 +22 комфорт 1006.9 999.0 +18.2 0.0
03 9.06 З 3 20 км {дождь} 8/3 1000 м
[Sc Ci fib]
+21.9 +14.5 63 +25 +35 комфорт 1005.7 997.8
06 9.06 С 7 20 км слаб. дождь 10/3 1000 м
[Sc As op]
+22.5 +16.7 70 +27 +28 душно 1004.1 996.2
09 9.06 СЗ 5 20 км {дождь} 8/0
[Ac trans]
+21.6 +16.9 75 +26 +26 душно 1003.5 995.6
12 9.06 СЗ 1 14 км {дождь} 6/6 1000 м
[Sc]
+20.1 +16.7 81 +24 +24 комфорт 1004.8 996.8 +23.5 0.0
15 9.06 20 км в посл. час дождь н/о +18.6 +15.2 81 +20 +20 1005.2 997.2
18 9.06 В 5 17 км слаб. дождь 10/6 300 м
[Sc As op]
+17.8 +16.1 90 +17 +17 1005.4 997.4 0.1
21 9.06 ЮВ 3 5000 м слаб. дождь 10/6 600 м
[Frnb As op]
+16.4 +16.0 97 +16 +16 1006.2 998.1
00 10.06 В 7 12 км слаб. дождь 10/8 300 м
[Sc As op]
+17.2 +16.3 94 +16 +16 1007.2 999.2 +16.1 3
03 10.06 ЮВ 3 20 км {дождь} 8/8 600 м
[Sc Ac trans]
+20.8 +13.2 62 +24 +27 комфорт 1007.2 999.2
06 10.06 В 4 20 км 9/3 1000 м
[Sc Ac trans]
+22.5 +12.7 54 +25 +29 комфорт 1006.8 998.9
09 10.06 В 4 20 км 8/4 1500 м
[Sc Ac trans]
+22.2 +11.2 50 +24 +25 комфорт 1005.8 997.9
12 10.06 В 8 20 км 6/6 1500 м
[Sc]
+20.8 +11.1 54 +22 +22 комфорт 1007.2 999.2 +23.0 0.0
15 10.06 В 4 20 км 8/3 1000 м
[Sc Ac trans]
+19.0 +10.2 57 +20 +20 1008.5 1000.5
18 10.06 В 3 20 км 8/4 1500 м
[Sc Ac trans]
+17.5 +9.6 60 +18 +18 1008.5 1000.5
21 10.06 20 км н/о +16.6 +10.8 69 +17 +17 1009.2 1001.1
00 11.06 ЮВ 3 20 км 3/3 1500 м
[Sc]
+20.8 +9.9 50 +23 +29 комфорт 1009.6 1001.6 +16.5 0.0
03 11.06 20 км н/о +22.2 +9.6 45 +24 +31 комфорт 1008.9 1001.0
06 11.06 С 4 20 км 1/1 1500 м
[Sc]
+23.7 +11.3 46 +25 +34 комфорт 1008.2 1000.4
09 11.06 СЗ 2 20 км ясно +23.5 +12.1 49 +25 +28 комфорт 1007.5 999.7
12 11.06 З 3 20 км ясно +19.4 +13.1 67 +21 +21 комфорт 1008.5 1000.5 +24.3
15 11.06 С 2 20 км ясно +18.7 +15.7 83 +20 +20 1009.6 1001.6
18 11.06 ЮЗ 1 10 км ясно +17.8 +16.8 94 +19 +19 1009.7 1001.7
21 11.06 Ю 1 9000 м дымка ясно +17.2 +16.8 97 +18 +19 1010.3 1002.2
00 12.06 З 3 14 км ясно +20.2 +15.1 72 +23 +31 комфорт 1011.0 1003.0 +17.0
03 12.06 ЮЗ 3 19 км ясно +22.1 +15.6 67 +26 +43 душно 1011.1 1003.2
06 12.06 З 4 20 км ясно +23.2 +13.9 56 +27 +37 душно 1010.2 1002.3
09 12.06 З 4 20 км ясно +22.9 +12.2 51 +26 +27 жарко 1009.5 1001.6
12 12.06 З 5 20 км ясно +19.7 +12.9 65 +21 +21 комфорт 1010.4 1002.4 +23.7
15 12.06 З 3 20 км ясно +18.2 +14.4 78 +19 +19 1011.0 1003.0
18 12.06 З 2 15 км ясно +17.6 +15.5 87 +18 +18 1010.7 1002.6
21 12.06 Ю 2 6000 м дымка 3/0
[Ci fib]
+17.4 +16.9 97 +18 +18 1010.8 1002.7
00 13.06 З 4 20 км 3/0
[Ci fib]
+20.6 +14.9 70 +24 +30 комфорт 1011.5 1003.5 +17.2
03 13.06 З 3 20 км 1/0
[Ci fib]
+24.1 +14.2 54 +27 +43 жарко 1010.8 1003.0
06 13.06 С 3 20 км 3/0
[Ci fib]
+25.6 +12.0 43 +27 +39 жарко 1008.8 1001.0
09 13.06 СЗ 4 19 км 8/0
[Ci fib]
+24.9 +13.7 50 +27 +29 жарко 1008.4 1000.5
12 13.06 С 6 15 км 8/0
[Ci fib]
+20.3 +13.9 67 +22 +22 комфорт 1009.1 1001.1 +26.5
15 13.06 С 1 12 км 9/0
[Ci sp]
+19.9 +14.0 69 +23 +23 комфорт 1008.6 1000.6
18 13.06 СЗ 2 15 км 9/0
[Ci sp]
+19.3 +16.7 85 +22 +22 комфорт 1007.5 999.5
21 13.06 С 2 7000 м дымка 9/0
[Ci sp]
+19.0 +17.4 90 +21 +21 комфорт 1007.3 999.3
00 14.06 С 5 11 км 9/4 1500 м
[Sc Ac trans]
+19.9 +17.2 84 +22 +24 комфорт 1007.1 999.1 +18.9
03 14.06 СЗ 3 18 км 6/0
[Ci fib]
+24.3 +14.9 56 +27 +42 жарко 1006.5 998.7
06 14.06 С 4 20 км 6/0
[Ci fib]
+26.1 +13.2 45 +28 +37 жарко 1004.3 996.5
09 14.06 С 3 20 км 8/0
[Ci fib]
+24.1 +14.2 54 +27 +28 жарко 1002.9 995.1
12 14.06 С 3 15 км 3/0
[Ci fib]
+20.7 +14.5 68 +24 +24 комфорт 1004.0 996.1 +26.7
15 14.06 С 6 14 км ясно +19.9 +16.9 83 +22 +22 комфорт 1003.4 995.4
18 14.06 С 4 9000 м дымка 1/0
[Ac trans]
+19.3 +18.1 93 +21 +21 комфорт 1001.8 993.9
21 14.06 С 4 6000 м дымка ясно +19.2 +15.8 81 +21 +21 комфорт 1001.6 993.7
00 15.06 С 8 12 км 3/3 1000 м
[Sc]
+21.0 +15.3 70 +24 +25 комфорт 1001.9 994.0 +19.1
03 15.06 18 км н/о +23.9 +14.8 57 +27 +36 жарко 1000.2 992.4
06 15.06 СЗ 5 16 км 3/3 1000 м
[Sc]
+25.1 +15.1 54 +28 +34 жарко 998.3 990.5
09 15.06 СЗ 5 20 км 3/3 1000 м
[Sc]
+24.9 +14.3 52 +27 +28 жарко 997.4 989.6
12 15.06 СВ 8 20 км 3/3 1000 м
[Sc]
+21.2 +11.7 55 +23 +23 комфорт 1000.3 992.4 +25.4
15 15.06 СВ 2 20 км ясно +19.6 +13.5 68 +22 +22 комфорт 1002.3 994.4
18 15.06 СВ 2 20 км ясно +18.4 +13.8 75 +19 +19 1003.1 995.1
21 15.06 СВ 2 20 км ясно +17.8 +13.9 78 +18 +19 1004.7 996.7

 

Местоположение метеостанции Инчхон (Корея): широта 37.47 долгота 126.63 высота над уровнем моря 70 м.

В архиве по умолчанию представлена погода в Инчхоне за последнюю неделю. Архивные данные за месяц целиком и за предыдущие месяцы, начиная с января 2011 года, Вы можете получить, выбрав интересующий диапазон дат из раскрывающегося списка и нажав кнопку "Ввод!".


*Определитесь, кто Вы:
робот инопланетянин человек

Внимание! Время в таблицах - всемирное. Для получения местного времени необходимо прибавить поправку, которая равна 9 ч.

Смотрите также архив погоды в соседних городах и на ближайших метеорологических станциях:

Погода в Сеуле (Корея) (31 км)
Погода в Сувоне (Корея) (38 км)
Погода в Мунсане (Корея) (47 км)
Погода в Кэсоне (КНДР) (56 км)
Погода в Тондучхоне (Корея) (61 км)
Погода на Базе Camp Humphreys (Корея) (68 км)
Погода в Ичхоне (Корея) (78 км)
Погода в Сосане (Корея) (79 км)
Погода в Букчунчеоне (Корея) (89 км)
Погода в Чхонане (Корея) (89 км)

Пояснения к столбцам:

Ветер - указаны скорость ветра в м/с - средняя за 10 мин, порывы в срок и между сроками (в фигурных скобках) и направление, откуда дует ветер: С - северный, СВ - северо-восточный, В - восточный, ЮВ - юго-восточный, Ю - южный, ЮЗ - юго-западный, З - западный, СЗ - северо-западный.
Видимость - горизонтальная дальность видимости в метрах или километрах. При видимости от 1 до 10 км при отсутствии осадков обычно наблюдается дымка, при ухудшении видимости до 1 км и менее - туман. В сухую погоду видимость может ухудшаться дымом, пылью или мглою.
Явления - указаны атмосферные явления, наблюдавшиеся в срок или в последний час перед сроком; фигурными скобками обозначены явления, наблюдавшиеся между сроками (за 1-3 часа до срока); квадратными скобками обозначены град или гололедные отложения с указанием их диаметра в мм.
Облачность - указаны через наклонную черту общая и нижняя облачность в баллах и высота нижней границы облаков в метрах; квадратными скобками обозначены формы облаков: Ci - перистые, Cs - перисто-слоистые, Cc - перисто-кучевые, Ac - высококучевые, As - высокослоистые, Sc - слоисто-кучевые, Ns - слоисто-дождевые, Cu - кучевые, Cb - кучево-дождевые. Подробнее классификацию облаков см. в Атласе облаков (PDF).
T - Температура воздуха - температура, измеренная на высоте 2 м над землей.
Td - Температура точки росы - температура, при понижении до которой содержащийся в воздухе водяной пар достигнет насыщения.
f - Относительная влажность воздуха - влажноcть воздуха, измеренная на высоте 2 м над землей.
Te - Эффективная температура - температура, которую ощущает одетый по сезону человек в тени. Характеристика душности погоды. При расчете учитывается влияние влажности воздуха и скорости ветра на теплоощущения человека.
Tes - Эффективная температура на солнце - температура, которую ощущает человек, с поправкой на солнечный нагрев. Характеристика знойности погоды. Зависит от высоты солнца над горизонтом, облачности и скорости ветра. Ночью, в пасмурную погоду, а также при ветре 12 м/с и более поправка равна нулю.
P - Атмосферное давление - приведенное к уровню моря атмосферное давление.
Po - Атмосферное давление - измеренное на уровне метеостанции атмосферное давление.
Tmin - Минимальная температура - минимум температуры воздуха на высоте 2 м над землей.
Tmax - Максимальная температура - максимум температуры воздуха на высоте 2 м над землей.
R - Количество осадков - Количество выпавших осадков за период времени, мм. При наведении курсора мыши на число - период времени, за который выпало указанное количество осадков.
R24 - Количество осадков - Количество выпавших осадков за 24 часа, мм.
S - Снежный покров - Высота снежного покрова, см. При наведении курсора мыши на число - состояние снежного покрова и степень покрытия местности в баллах.